Niagara Falls, NY
on Thursday, December 7, 2017

Thursday
       
Previous Day Next Day
Daily Summary
 ActualAverageRecord
Temperature
Mean Temperature °F °C °F °C  
Max Temperature 36°F 2°C 38°F 3°C 68°F 20°C (1998)
Min Temperature 28°F -2°C 26°F -3°C 10°F -12°C (2008)
Degree Days
Heating Degree Days 33    
Moisture
Dew Point 17°F -8°C   
Average Humidity 53    
Maximum Humidity 66    
Minimum Humidity 45    
Precipitation
Precipitation 0.00 in / 0.00 cm in / cm in / cm ()
Wind
Wind Speed 16 mph / 26 km/h   
Max Wind Speed 24 mph / 39 km/h   
Max Gust Speed 36 mph / 58 km/h   
Visibility 10 miles / 16 kilometers   
Events     
Averages and records for this station are not official NWS values.
Key: T is trace of precipitation, MM is missing value
Source: NWS Daily Summary
Seasonal Weather Averages
Time(EST)TemperatureDew PointHumidity Pressure Visibility Wind DirectionWind SpeedGust SpeedPrecipitationEvents Conditions
12:53 AM 36.0°F 2.2°C 19.0°F -7.2°C 50% 29.92 in / 1013.0 hPa 10.0 miles / 16.1 kilometers West 20.7 mph / 33.3 km/h 31.1 mph / 50.0 km/h N/A   Overcast
1:53 AM 35.1°F 1.7°C 19.0°F -7.2°C 52% 29.93 in / 1013.3 hPa 10.0 miles / 16.1 kilometers West 19.6 mph / 31.5 km/h 27.6 mph / 44.4 km/h N/A   Overcast
2:53 AM 35.1°F 1.7°C 19.0°F -7.2°C 52% 29.95 in / 1014.1 hPa 10.0 miles / 16.1 kilometers West 17.3 mph / 27.8 km/h - N/A   Overcast
3:53 AM 34.0°F 1.1°C 19.0°F -7.2°C 54% 29.94 in / 1013.7 hPa 10.0 miles / 16.1 kilometers West 13.8 mph / 22.2 km/h - N/A   Overcast
4:53 AM 34.0°F 1.1°C 19.9°F -6.7°C 56% 29.93 in / 1013.5 hPa 10.0 miles / 16.1 kilometers West 8.1 mph / 13.0 km/h - N/A   Overcast
5:53 AM 33.1°F 0.6°C 21.0°F -6.1°C 61% 29.94 in / 1013.6 hPa 10.0 miles / 16.1 kilometers West 8.1 mph / 13.0 km/h - N/A   Overcast
6:53 AM 33.1°F 0.6°C 21.0°F -6.1°C 61% 29.94 in / 1013.8 hPa 10.0 miles / 16.1 kilometers West 9.2 mph / 14.8 km/h - N/A   Overcast
7:53 AM 33.1°F 0.6°C 21.9°F -5.6°C 64% 29.94 in / 1013.9 hPa 10.0 miles / 16.1 kilometers WNW 10.4 mph / 16.7 km/h - N/A   Overcast
8:53 AM 33.1°F 0.6°C 23.0°F -5.0°C 66% 29.96 in / 1014.4 hPa 10.0 miles / 16.1 kilometers WNW 10.4 mph / 16.7 km/h - N/A   Overcast
9:53 AM 34.0°F 1.1°C 23.0°F -5.0°C 64% 29.96 in / 1014.3 hPa 10.0 miles / 16.1 kilometers West 15.0 mph / 24.1 km/h - N/A   Mostly Cloudy
10:53 AM 35.1°F 1.7°C 19.9°F -6.7°C 54% 29.96 in / 1014.5 hPa 10.0 miles / 16.1 kilometers West 16.1 mph / 25.9 km/h - N/A   Scattered Clouds
11:53 AM 34.0°F 1.1°C 19.0°F -7.2°C 54% 29.94 in / 1013.9 hPa 10.0 miles / 16.1 kilometers West 20.7 mph / 33.3 km/h - N/A   Mostly Cloudy
12:53 PM 36.0°F 2.2°C 18.0°F -7.8°C 48% 29.92 in / 1013.1 hPa 10.0 miles / 16.1 kilometers West 21.9 mph / 35.2 km/h 31.1 mph / 50.0 km/h N/A   Mostly Cloudy
1:53 PM 35.1°F 1.7°C 16.0°F -8.9°C 46% 29.92 in / 1013.0 hPa 10.0 miles / 16.1 kilometers West 24.2 mph / 38.9 km/h 35.7 mph / 57.4 km/h N/A   Mostly Cloudy
2:53 PM 34.0°F 1.1°C 15.1°F -9.4°C 46% 29.91 in / 1012.9 hPa 10.0 miles / 16.1 kilometers West 19.6 mph / 31.5 km/h 25.3 mph / 40.7 km/h N/A   Mostly Cloudy
3:53 PM 32.0°F 0.0°C 12.9°F -10.6°C 45% 29.94 in / 1013.7 hPa 10.0 miles / 16.1 kilometers West 21.9 mph / 35.2 km/h 27.6 mph / 44.4 km/h N/A   Scattered Clouds
4:53 PM 32.0°F 0.0°C 12.9°F -10.6°C 45% 29.95 in / 1014.0 hPa 10.0 miles / 16.1 kilometers West 16.1 mph / 25.9 km/h 24.2 mph / 38.9 km/h N/A   Mostly Cloudy
5:53 PM 30.9°F -0.6°C 12.9°F -10.6°C 47% 29.96 in / 1014.6 hPa 10.0 miles / 16.1 kilometers West 15.0 mph / 24.1 km/h - N/A   Overcast
6:53 PM 30.0°F -1.1°C 12.9°F -10.6°C 49% 29.99 in / 1015.5 hPa 10.0 miles / 16.1 kilometers West 18.4 mph / 29.6 km/h - N/A   Overcast
7:53 PM 30.0°F -1.1°C 15.1°F -9.4°C 54% 30.01 in / 1016.0 hPa 10.0 miles / 16.1 kilometers West 16.1 mph / 25.9 km/h 24.2 mph / 38.9 km/h N/A   Overcast
8:53 PM 28.9°F -1.7°C 15.1°F -9.4°C 56% 30.01 in / 1016.3 hPa 10.0 miles / 16.1 kilometers WSW 15.0 mph / 24.1 km/h - N/A   Partly Cloudy
9:53 PM 28.0°F -2.2°C 15.1°F -9.4°C 58% 30.02 in / 1016.5 hPa 10.0 miles / 16.1 kilometers WSW 18.4 mph / 29.6 km/h - N/A   Clear
10:53 PM 28.9°F -1.7°C 12.9°F -10.6°C 51% 30.01 in / 1016.2 hPa 10.0 miles / 16.1 kilometers WSW 17.3 mph / 27.8 km/h - N/A   Clear
11:53 PM 28.9°F -1.7°C 12.0°F -11.1°C 49% 30.00 in / 1015.7 hPa 10.0 miles / 16.1 kilometers West 11.5 mph / 18.5 km/h - N/A   Mostly Cloudy